Regional Weather Roundup
Issued by NWS

Home | Current Version | Previous Version | Graphics & Text | Print | Product List | Glossary On
Versions: 1 2 3 4 5 6 7 8 9 10 11 12 13 14 15 16 17 18 19 20 21 22 23 24 25 26 27 28 29 30 31 32 33 34 35 36 37 38 39 40 41 42 43 44 45 46 47 48 49 50
000
ASUS43 KMPX 230510
RWRMN
WEATHER ROUNDUP FOR MINNESOTA
NATIONAL WEATHER SERVICE TWIN CITIES/CHANHASSEN MN
1200 AM CDT WED AUG 23 2017


NOTE: "FAIR" INDICATES FEW OR NO CLOUDS BELOW 12,000 FEET WITH NO
SIGNIFICANT WEATHER AND/OR OBSTRUCTIONS TO VISIBILITY. N/A MEANS
CURRENT SKY AND/OR WEATHER CONDITIONS ARE NOT AVAILABLE.

MNZ060>063-068>070-230600-
   Twin Cities Metro

CITY           SKY/WX    TMP DP  RH WIND       PRES   REMARKS
TWIN CITIES    CLEAR     62  48  60 W9        30.05R
ST PAUL        CLEAR     63  50  62 NW8       30.05R
CRYSTAL        CLEAR     62  47  57 W7        30.04R
BLAINE         CLEAR     61  50  67 W8        30.04S
LAKEVILLE      CLEAR     55  50  82 W5        30.06S
EDEN PRAIRIE   CLEAR     61  49  64 W7        30.05R
SOUTH ST PAUL  CLEAR     61  50  67 W5        30.04S
LAKE ELMO      FAIR      59  50  72 W6        30.05R
$$
MNZ001>005-007-008-013>017-022>024-027-028-230600-
   Northwest Minnesota

CITY           SKY/WX    TMP DP  RH WIND       PRES   REMARKS
BEMIDJI        CLEAR     52  48  87 W5        30.07R
HALLOCK        CLEAR     52  48  87 CALM      30.08S
ROSEAU         CLEAR     54  48  82 NW5       30.07R
WARROAD        CLEAR     52  46  82 NW3       30.07R
THIEF RVR FALL CLEAR     54  49  83 CALM      30.09S
CROOKSTON      CLEAR     50  45  81 NW5       30.09S
FOSSTON        CLEAR     46  43  87 CALM      30.08S
DETROIT LAKES  CLEAR     55  46  71 NW3       30.10R
MOORHEAD       CLEAR     55  46  71 CALM      30.10R
PARK RAPIDS    CLEAR     51  47  86 W6        30.07S
MAHNOMEN       FAIR      50  46  85 W3        30.09R
$$
MNZ006-009>011-018-025>026-230600-
   North Central Minnesota

CITY           SKY/WX    TMP DP  RH WIND       PRES   REMARKS
BAUDETTE       PTCLDY    52  50  93 CALM      30.04S
FLAG ISLAND    CLEAR     61  48  63 N3        30.04S
INTL FALLS     CLEAR     50  47  89 W5        30.02S
WASKISH        CLEAR     55  52  88 NW5       30.05S
BIG FORK       CLEAR     54  50  87 CALM      30.04R
LONGVILLE      CLEAR     55  52  88 CALM      30.05S
GRAND RAPIDS   CLEAR     56  52  86 NW5       30.05S
CRANE LAKE     CLEAR     55  52  88 CALM      30.02R
ORR            PTCLDY    54  48  82 NW5       29.99S
COOK           CLEAR     52  48  87 CALM      30.02S
WALKER         FAIR      52  49  91 NW5       30.06S
$$
MNZ012-019>021-037-230600-
   Northeast Minnesota

CITY           SKY/WX    TMP DP  RH WIND       PRES   REMARKS
DULUTH         CLEAR     54  52  93 NW8       30.00S
ELY            MOCLDY    54  52  94 NW3       29.99S
HIBBING        CLEAR     50  48  93 NW6       30.02R
EVELETH        CLEAR     58  47  68 NW6       30.02R
DULUTH HARBOR  CLEAR     63  55  77 NW14      29.99S
GRAND MARAIS     N/A     58  53  84 SW8       29.92R
G MARAIS ARPRT CLEAR     52  46  82 NW7       29.94S
$$
MNZ029>031-032-039>041-046>048-054>057-064-230600-
   West Central Minnesota

CITY           SKY/WX    TMP DP  RH WIND       PRES   REMARKS
FERGUS FALLS   CLEAR     52  48  87 CALM      30.10S
WHEATON        CLEAR     55  48  76 SW6       30.12F
MORRIS         CLEAR     55  48  76 W5        30.10S
ALEXANDRIA     CLEAR     57  50  77 W5        30.11S
ELBOW LAKE     FAIR      55  49  82 NW3       30.11S
WADENA         CLEAR     54  46  76 W5        30.08S
GLENWOOD       CLEAR     55  48  76 W6        30.10S
APPLETON       CLEAR     54  48  82 W5        30.11S
BENSON         CLEAR     52  48  87 CALM      30.12S
ORTONVILLE     CLEAR     57  52  82 MISG      30.11S
MADISON        CLEAR     55  55 100 W6        30.12S
WILLMAR        FAIR      55  52  88 W3        30.12R
$$
MNZ033>034-036-042>043-049>051-058-059-230600-
   Central Minnesota

CITY           SKY/WX    TMP DP  RH WIND       PRES   REMARKS
ST CLOUD       CLEAR     58  50  75 NW8       30.06S
SAUK CENTRE    FAIR      54  49  86 W3        30.09S
PAYNESVILLE    CLEAR     49  48  95 W6        30.10R
AITKIN         CLEAR     48  46  93 CALM      30.03S
PINE RIVER     CLEAR     55  48  76 CALM      30.08S
BRAINERD       CLEAR     59  48  67 NW3       30.06R
STAPLES        CLEAR     50  45  81 W3        30.07S
LONG PRAIRIE   FAIR      57  46  67 W6        30.08F
LITTLE FALLS   CLEAR     54  46  76 NW3       30.07S
LITCHFIELD     CLEAR     61  54  77 W5        30.10R
BUFFALO        CLEAR     60  50  70 W7        30.08R
MAPLE LAKE     CLEAR     59  51  77 W5        30.08R
HUTCHINSON     CLEAR     55  52  91 W5        30.11R
$$
MNZ037-044-045-052-053-230600-
   East Central Minnesota

CITY           SKY/WX    TMP DP  RH WIND       PRES   REMARKS
PRINCETON      CLEAR     55  48  76 W3        30.06R
MORA           CLEAR     55  45  67 NW5       30.05S
CAMBRIDGE      CLEAR     59  46  63 CALM      30.05R
RUSH CITY      MOCLDY    54  49  81 CALM      30.04R
MOOSE LAKE     CLEAR     54  50  87 W3        30.01S
HINCKLEY       FAIR      55  50  82 NW5       30.03R
CLOQUET        CLEAR     54  48  82 W5        30.01S
MCGREGOR       CLEAR     55  50  82 W3        30.04S
$$
MNZ071>073-080-081-089-090-097-098-230600-
   Southwest Minnesota

CITY           SKY/WX    TMP DP  RH WIND       PRES   REMARKS
MONTEVIDEO     CLEAR     55  48  76 NW5       30.11S
GRANITE FALLS  CLEAR     54  52  94 SW7       30.13S
CANBY          CLEAR     56  50  80 CALM      30.14S
MARSHALL       CLEAR     55  51  86 W7        30.14R
REDWOOD FALLS  CLEAR     58  50  75 W7        30.11R
OLIVIA         CLEAR     54  50  87 W6        30.10R
PIPESTONE      CLEAR     57  52  82 CALM      30.16R
WINDOM         CLEAR     54  50  87 CALM      30.14S
WORTHINGTON    CLEAR     53  50  89 W3        30.16R
JACKSON        CLEAR     54  50  87 CALM      30.15R
TRACY          CLEAR     57  53  86 SW7       30.14S
SLAYTON        CLEAR     53  45  76 W5        30.16R
$$
MNZ065>067-074>077-082>085-091>093-230600-
   South Central Minnesota

CITY           SKY/WX    TMP DP  RH WIND       PRES   REMARKS
MANKATO        CLEAR     56  51  84 W7        30.10R
NEW ULM        CLEAR     52  48  87 W6        30.11R
ST JAMES       CLEAR     54  52  94 SW5       30.13R
FAIRMONT       CLEAR     55  51  86 W5        30.13R
GLENCOE        CLEAR     58  54  85 W6        30.08R
FARIBAULT      CLEAR     59  52  77 W5        30.08R
OWATONNA       CLEAR     54  50  87 CALM      30.08S
WASECA         CLEAR     52  50  93 W3        30.10S
ALBERT LEA     CLEAR     61  54  77 W3        30.10S
$$
MNZ078>079-086>088-094>096-230600-
   Southeast Minnesota

CITY           SKY/WX    TMP DP  RH WIND       PRES   REMARKS
ROCHESTER      CLEAR     53  50  89 W9        30.08R
RED WING       CLEAR     55  50  82 CALM      30.03S
STANTON        CLEAR     58  50  76 W3        30.05R
DODGE CENTER   CLEAR     55  48  76 W6        30.08S
WINONA         CLEAR     57  50  77 NW6       30.04S
AUSTIN         CLEAR     57  48  72 W6        30.09S
PRESTON        CLEAR     56  48  75 W9        30.08S
$$
ABBREVIATIONS USED IN REMARKS
   TC - TEMPERATURES IN CELSIUS
  WCI - WIND CHILL INDEX
   HX - HEAT INDEX
  VSB - VISIBILITY
$$




USA.gov is the U.S. government's official web portal to all federal, state and local government web resources and services.